Location: Mahannah Oil Field
(37.4664°N, 96.6003°W)
Time: 14:28:41
(UTC+00:00)

Transit 2A Rocket - Pass Details

Date: 27 January 2021
Orbit: 594 x 909 km, 66.7° (Epoch: 24 February)

Event Time Altitude Azimuth Distance (km) Brightness Sun altitude
Rises 17:06:31 0° 196° (SSW) 3,394 9.0 30.1°
Reaches altitude 10° 17:09:06 10° 193° (SSW) 2,420 8.5 30.4°
Maximum altitude 17:14:33 59° 115° (ESE) 893 6.3 30.8°
Drops below altitude 10° 17:19:34 10° 36° (NE) 2,226 7.2 31.2°
Sets 17:21:51 0° 33° (NNE) 3,101 7.8 31.4°
